THOR ABLESTAR DEB, 48811

Orbit data source: Space-Track

THOR ABLESTAR DEB, 48811 is space debris in LEO originally from a launch on Thu, 29 Jun 1961 UTC launched from the Air Force Eastern Test Range (AFETR). Debris objects in space refer to the collection of defunct objects orbiting the Earth. Examples of debris include non-operational satellites, rocket bodies, and fragments generated from explosions, collisions, or faulty payload assembly.

Loading next visibility...
Identifier
48811, 1961-015MP
Orbit
LEO
Country
Flag of USUS
Related business
Manufacturer
Unknown
Mission
Spacecraft
Bus & Motor
Unknown
Mass
Unknown
Launch date (UTC)
1961-06-29 (65 years ago)
Launch vehicle
Unknown
Launch site
Air Force Eastern Test Range (AFETR)
Object type
Payload
Rocket body
Debris
Shape & HBR
Unknown shape, 0.1 m
Radar Cross Section
Medium (>0.1 m² and <1 m²)

Expand to show TLE details & history
Last TLE update: 1 day ago

TLE from 1 day ago
0 THOR ABLESTAR DEB
1 48811U 61015MP  26171.18326321  .00000216  00000-0  26807-3 0  9993
2 48811  67.0610 346.8499 0099040 146.4976 214.2418 13.79891124633049
Epoch: 2026-06-20T04:23Z
TLE epoch observation values (Epoch: 2026-06-20T04:23:53.941Z)
Latitude
0.00005°
Longitude
12.47362°
Altitude
1,026.705 km
Speed
7.309 km/s
True Right ascension
23h 07m 23s
True Declination
0° 00' 00"
Sunlit
Object was in daylight at epoch
Visualization orbit readout
Latitude
Unknown
Longitude
Unknown
Altitude
Unknown
Speed
Unknown
Apparent Right ascension
Unknown
Apparent Declination
Unknown
Sunlit
N/A
Visualization observer readout
Local Sidereal Time
19:58:57
Azimuth
Unknown
Elevation
Unknown
Doppler factor
Unknown
Orbital elements
Apogee altitude
1,035.348 km
Perigee altitude
889.942 km
Semi-major axis
7,340.782 km
Eccentricity
0.0099
Inclination
67.061°
RAAN
346.8499°
Arg. of periapsis
146.4976°
True anomaly
213.60968°
Mean anomaly
214.2418°
Eccentric anomaly
213.9251°
Mean motion
3.45088 °/min
Orbital period
104.32 mins
BSTAR
0.00026807

Documentation

Showing up to 5 results
|